Location: *
(50.3194°N, 7.1067°E)
Time: 12:09:17
(UTC+00:00)

Ariane Rocket - Pass Details

Date: 22 September 2019
Orbit: 761 x 769 km, 98.8° (Epoch: 20 October)

Event Time Altitude Azimuth Distance (km) Brightness Sun altitude
Rises 18:51:47 0° 180° (S) 3,215 6.0 -13.6°
Reaches altitude 10° 18:54:09 10° 186° (S) 2,295 5.3 -14.0°
Maximum altitude 18:59:02 48° 260° (W) 997 4.0 -14.7°
Drops below altitude 10° 19:03:58 10° 335° (NNW) 2,317 6.1 -15.4°
Sets 19:06:22 0° 341° (NNW) 3,249 6.8 -15.8°
